Member area
Imprimable
Brussels, 13/09/2020, BEL - Bxl Tour
List of reports > Loisirs - Result
Search: Page: [1]
254 Entries
 
Complains are not accepted anymore. Results are final.
PlaceNrNameAgeNATTeamTimeTkmMoy.ScrCity
1.1722FSCHEYLTJENS Isabelle31BEL1:00:141:31 39.85146HEVERLEE
2.1775FLENAERTS Lindsey26BEL1:00:181:31 39.80150DILBEEK
3.1975FHENRION Ludivine36BEL1:00:341:31 39.64169NOVILLE-SUR-MEHAIGNE
4.1766FDE NUL Marlies25BEL1:00:511:32 39.45204GRIMBERGEN
5.1725FVAN DE VOORDE Maxime30BEL1:00:521:32 39.43208HEUSDEN
6.1767FDE NUL Ruth27BEL1:00:591:32 39.36216BRUSSEL
7.1768FDECKERS Marie28BEL1:01:071:32 39.27222UKKEL
8.1772FHERMANS Sylvia38BEL1:02:131:34 38.58248DIEST
9.2108FRIVIERE Perrine34BEL1:03:041:35 38.06313TERVUREN
10.1822FPAIVA Ana32BRA1:03:101:35 38.00328ETTERBEEK
11.1776FLODEWIJCKX Marianne37BEL1:03:121:35 37.98334GEEL
12.1762FBRANDT Liza29BEL1:03:191:35 37.91341SINT JOOST
13.1053FTOUSSAINT Pauline20BEL1:03:351:36 37.75357GEMBLOUX
14.1770FELTON Charlotte36BEL1:03:491:36 37.61373DILBEEK
15.1529FVAN DRIESSCHE Fanny29BEL1:03:511:36 37.59375AUDERGHEM
16.1331FHILLER Eleonore17FRA1:04:251:37 37.26396BRUXELLES
17.5377FDE NEVE Loes28BEL1:05:301:39 36.65443GENT
18.1457FLEENHOUTS-MARTIN Lisa39USA1:08:101:43 35.21569UCCLE
19.1330FHILLER Marie-Louise15FRA1:08:301:43 35.04592BRUXELLES
20.1211FDE HALLEUX Audrey33BEL1:08:331:43 35.02597UCCLE
21.579FBAUWENS Marine35BEL1:08:481:44 34.89608LIMAL
22.966FGUYOT Margaux25BEL1:09:281:45 34.55640OTTIGNIES
23.1113FENGSTEDT Rasa34SWE1:09:361:45 34.49647IXELLES
24.1729FVAN WAEYENBERGE Sofie50BEL1:10:211:46 34.12693BRUSSELS
25.1389FLINS Noémie26BEL1:10:211:46 34.12694VILVOORDE
26.657FLEYSENS Anne25BEL1:10:321:46 34.03702
27.5382FGUILLAUME Laura26BEL1:10:331:46 34.02703
28.1764FCLAUWAERT Chloé23BEL1:10:341:46 34.01705ZWEVEGEM
29.791FBOULAERT Bieke60BEL1:10:521:47 33.87712OOSTERZELE
30.1779FORISTIL Karmen38HRV1:11:091:47 33.74723ST-GILLES
31.1284FMONTENAIR Anaïs26BEL1:11:471:48 33.44750WOLUWE SAINT LAMBERT
32.1388FDUBOS Amandine27FRA1:12:221:49 33.17782BRUXELLES
33.642FDEVENYNS Cécile33BEL1:12:321:49 33.10788
34.1723FSOMERS Sue44BEL1:12:451:50 32.99797KERMT
35.1773FISSELÉ Louise30BEL1:12:471:50 32.98799ANDERLECHT
36.1726FVAN DEN RUL Celine26BEL1:13:021:50 32.87808WEZEMBEEK-OPPEM
37.1760FBASTIN Enya27BEL1:13:051:50 32.85810LEUVEN
38.1759FAMPE Emily29BEL1:13:181:50 32.75818GENT
39.1299FBARDONE Laura55ITA1:13:271:51 32.68821BRUSSELS
40.2016FLENOIR Anne-Francoise52BEL1:13:331:51 32.63827BRUXELLES
41.2111FSIMON Alexine18BEL1:13:581:51 32.45841BRUXELLES
42.1911FNAGANT Audrey32BEL1:14:081:52 32.38852SAINT-GILLES
43.890FDEWEZ Charline15BEL1:14:181:52 32.31859WOLUWE-SAINT-PIERRE
44.1452FDE SMET Kirsten22BEL1:15:121:53 31.92890WIJGMAAL
45.1451FGEVAERT Kato19BEL1:15:141:53 31.91891HAACHT
46.5488FSTALLAERTS Anouk27BEL1:15:531:54 31.63911IXELLES
47.2189FDUCHATEAU Myriam59BEL1:16:011:55 31.57917RIXENSART
48.1765FDE BOECK Ianthe32BEL1:16:111:55 31.50924ELSENE
49.259FGYSEL Renate57BEL1:16:141:55 31.48929BAULERS
50.2073FUMANS Lieselotte29BEL1:16:231:55 31.43938ANTWERPEN
51.1475FKERSTEN Valérie42BEL1:16:241:55 31.42940BRUXELLES
52.643FDUBUISSON Julie34BEL1:16:311:55 31.37944
53.1782FROCHE Irene48ESP1:17:091:56 31.11966WOLUWE SAINT PIERRE
54.1970FSAINTIGNY Clara28FRA1:17:371:57 30.92980IXELLES
55.1031FDOMECQ Céline41FRA1:17:421:57 30.89985WOLUWE-SAINT-PIERRE
56.943FBUENO Bruna29ITA1:17:441:57 30.88988KOEKELBERG
57.1003FPAULET Laurence43BEL1:18:161:58 30.671006SCHAERBEEK
58.419FMOEYS Katrien31BEL1:18:171:58 30.661009SINT-GILLIS
59.247FESCAJADILLO Vera43CZE1:19:252:00 30.231042BRUXELLES
60.2010FVAN HACHT Pascale48BEL1:19:302:00 30.191045LIMELETTE
61.1465FLAMBERT Marie22BEL1:19:402:00 30.131054BRUXELLES
62.275FCASTELAIN Inge42BEL1:20:142:01 29.911069KLUISBERGEN
63.1778FMOSER Ellen28FRA1:20:292:01 29.821076ETTERBEEK
64.2037FPONCIN Mégane27BEL1:21:022:02 29.621091LOUVAIN-LA-NEUVE
65.1742FOOSTENDORP Allison39NLD1:21:042:02 29.611093BRUXELLES
66.1774FJACOB Yvette30BEL1:21:102:02 29.571096BRUXELLES
67.1730FVANDERPOOTEN Chris37BEL1:21:152:02 29.541099BRUSSELS
68.1780FPAREYN Silke30BEL1:21:232:03 29.491105JABBEKE
69.547FDEBACKERE Lieselotte30BEL1:21:472:03 29.351117
70.1623FVOTSOGLOU Angeliki43GRC1:22:062:04 29.241129WOLUWE ST-PIERRE
71.2005FCOPPIETERS Odile22BEL1:22:352:04 29.061143UCCLE
72.917FBRUMAGNE Alexia31BEL1:22:562:05 28.941156ANDERLECHT
73.901FHENRIQUES DE GRANADA Cyrielle14BEL1:23:002:05 28.921158BRUXELLES
74.747FPIENIEZNY Elise35FRA1:23:062:05 28.881164ST-GILLES
75.575FVAN MOLLE Inge41BEL1:23:222:06 28.791171BRUXELLES
76.1043FWILLEMSE Laurence37BEL1:23:322:06 28.731179SCHAARBEEK
77.528FDOORNAERT Mélanie23BEL1:23:432:06 28.671190BRUXELLES
78.1763FCASTON Genevieve38BEL1:23:522:06 28.621195IXELLES
79.1313FACCARAIN Alice20BEL1:24:002:06 28.571199BRUXELLES
80.2067FDROCHMANS Coralie29BEL1:24:012:07 28.571200KRAAINEM
81.1193FVANMECHELEN Olivia52BEL1:24:162:07 28.491211BRUSSEL
82.5474FSCHNEIDER Cecile30DEU1:24:222:07 28.451214IXELLES
83.1252FREZIG Fiala28FRA1:24:492:08 28.301229ANVERS
84.516FVAN GOIDSENHOVEN Annelies40BEL1:24:502:08 28.291231BRUXELLES
85.515FDECOSTER Sylvie41BEL1:24:512:08 28.291232BRUXELLES
86.1661FGALEGO FERREIRA Laetitia35BEL1:24:552:08 28.261233VILVOORDE
87.1919FDEN TANDT Anne51BEL1:25:032:08 28.221237WOLUWE
88.1214FLEBACQ Isabelle57BEL1:25:172:08 28.141251BAISY-THY
89.781FMEYKENS Christine39BEL1:25:312:09 28.071254SENEFFE
90.2135FERMANS Marie34BEL1:25:542:09 27.941261AUDERGHEM
91.1147FDEBAILLIE Isabelle46BEL1:26:502:11 27.641285BRUXELLES
92.203FCARDOSO DA ROCHA Maria João56PRT1:26:532:11 27.631286STROMBEEK BEVER
93.5385FOANA Mija42BEL1:26:572:11 27.601291OHAIN
94.1143FBOITTE Margaux31BEL1:27:022:11 27.581293SCHAERBEEK
95.1256FOLIVIER Lucie15BEL1:27:222:12 27.471301WOLUWE-SAINT-LAMBERT
96.1213FGILLARD Sophie34BEL1:27:302:12 27.431304HOEILAART
97.1668FBROSSIER Sarah32BEL1:27:312:12 27.431306NIVELLES
98.1666FGOESEELS Severine32BEL1:27:352:12 27.411307SCHAERBEEK
99.440FLAMMENS Ines20BEL1:27:422:12 27.371311MEERBEKE
100.1302FDUBOIS Mahaut21BEL1:27:482:12 27.341316BRUXELLES
101.2157FCOLASSIN Alicia27BEL1:28:002:12 27.281322WEZEMBEEK-OPPEM
102.1962FCEULENAERE Oriane25BEL1:28:262:13 27.141332BRUXELLES
103.1046FVANDEN DRIES Kristel52BEL1:28:502:14 27.021337GRIMBERGEN
104.1067FLOGNARD Mary-Odile54BEL1:29:002:14 26.971340BRUXELLES
105.2167FHERMANGE Claire38FRA1:29:102:14 26.921345WOLUWE-SAINT-PIERRE
106.1173FSTODDART Lydia27GBR1:29:122:14 26.911347BRUSSELS
107.753FWAUTELET Ariane37BEL1:29:182:14 26.881348WOLUWE-SAINT-LAMBERT
108.209FHEINRICHS Geneviève54BEL1:29:462:15 26.741357UCCLE
109.804FLEGRAND Stéphanie25BEL1:29:482:15 26.731361DILBEEK
110.2086FMILANOVIC Tina35BEL1:30:002:15 26.671368SCHAERBEEK
111.765FSOKOLOWSKA Aneta45POL1:30:002:15 26.671370BRUSSELS
112.519FLECLÈRE Cécile34BEL1:30:262:16 26.541379WATERMAEL
113.207FVIEUXTEMPS Marguerite20BEL1:30:372:16 26.491382UCCLE
114.1294FMARTEAU Sophie30BEL1:30:512:17 26.421388WATERLOO
115.331FLEONARD Elodie38BEL1:30:532:17 26.411390MEISE
116.329FVANDERBECK Anouk32BEL1:30:582:17 26.391392BRUXELLES
117.1358FTANYA Lonergan47IRL1:31:042:17 26.361394BRUSSELS
118.1201FNUGENT NEIL Ruth50IRL1:31:052:17 26.351395BRUSSELS
119.1359FKULKARNI Judy45IRL1:31:062:17 26.351396BRUXELLES
120.1267FDILLON Karen51IRL1:31:072:17 26.341398BRUSSELS
121.2158FVEULEMANS Manon22BEL1:31:092:17 26.331400BRUXELLES
122.5206FPUTMAN Coralie39FRA1:31:132:17 26.311402NECHIN
123.358FVAN STRYDONCK Charlotte35BEL1:31:202:17 26.281404BRUSSEL (WATERMAAL-BOSV.)
124.1293FVAN DER HASSELT Marie30BEL1:31:262:18 26.251406LA HULPE
125.2136FWERQUIN Gaëlle33BEL1:31:332:18 26.221409BRUXELLES
126.521FFINN Tsillia26BEL1:31:472:18 26.151416SCHAERBEEK
127.2145FVEKEMANS Audrey25BEL1:31:492:18 26.141418BRUXELLES
128.462FMAERVOET Christel49BEL1:31:562:18 26.111421BRUXELLES
129.1575FSZAKONY Zsófia26BEL1:31:572:18 26.101422BRUXELLES
130.430FTAELMAN Amelie42BEL1:31:592:18 26.101423FLOBECQ
131.345FVAN SCHAREN Annelies35BEL1:32:132:19 26.031427ITTERBEEK
132.344FDE MONDT Charlotte29BEL1:32:142:19 26.021428DEURNE
133.256FDUMONCEAU Florine20BEL1:32:152:19 26.021429LEVAL-TRAHEGNIES
134.2134FBOUNAMEAUX Laurence34BEL1:32:562:20 25.831444BRUXELLES
135.1718FWITHOFS Charlotte49BEL1:33:182:20 25.721449IXELLES
136.2146FCLERFAYT Mathilde25BEL1:33:202:20 25.711450BRUXELLES
137.5354FMOLNÁR Gabriella43HUN1:33:312:21 25.671457BRUSSELS
138.5386FAUCHAPT Diane29FRA1:33:392:21 25.631460SAINT-GILLES
139.1482FSORO Livia20ITA1:34:192:22 25.451476SCHAERBEEK
140.425FRAHALI DOUKALI Chaima19BEL1:35:062:23 25.241491KOEKELBERG
141.1208FARON Nadine61BEL1:35:322:24 25.121493BRUSSELS
142.244FSUWAN Saranya24BEL1:35:442:24 25.071497UCCLE
143.243FBRAEMS Carine57BEL1:35:452:24 25.071498BEERSEL
144.1305FSTUHLMANN Anne-Rieke34DEU1:35:592:24 25.011501BRUXELLES
145.2197FSMETS Baptistine31BEL1:36:102:25 24.961504BRUXELLES
146.1492FVANKERKHOVEN Coralie47BEL1:37:012:26 24.741515BRUXELLES
147.2040FDE SMEDT Nathalie32BEL1:37:202:26 24.661518WOLUWE
148.1005FKEMPENEERS Isabelle40BEL1:37:412:27 24.571522WOLUWE SAINT PIERRE
149.1340FMORJANE Charlotte34BEL1:37:422:27 24.571523SCHAERBEEK
150.2196FDOUMONT Geraldine41BEL1:37:472:27 24.551525WOLUWE SAINT LAMBERT
151.1049FTEUGHELS Anne54BEL1:37:552:27 24.511527BRUSSEL
152.1114FGRANDJEAN Fabienne58BEL1:38:002:27 24.491528BRUXELLES
153.472FRAHMOUN Anis43BEL1:38:082:28 24.461531BRUXELLES
154.1547FDRESSOU Martine55BEL1:38:122:28 24.441533ANDERLECHT
155.836FNORIKO Watanabe39JPN1:39:042:29 24.231545BRUSSELS
156.1153FFOUCART Michele39BEL1:39:072:29 24.211547UCCLE
157.992FPLISNIER Nathalie42BEL1:39:082:29 24.211548BRUXELLES
158.464FBAUWENS Nathalie33BEL1:39:192:29 24.171554PERWEZ
159.1621FDEREPPE Fabienne49BEL1:39:192:29 24.171555VILVOORDE
160.930FPAPAR Zia33IND1:39:252:30 24.141557BRUXELLES
161.713FHERMANN Anne51BEL1:39:282:30 24.131558FOREST
162.908FHENDRICKX Chantal47BEL1:39:302:30 24.121560BRUXELLES
163.715FLE BOURGEOIS Garance15BEL1:39:382:30 24.091561FOREST
164.878FFERRANT Isabelle62BEL1:39:382:30 24.091562BRUXELLES
165.1329FROUSSON Marianne52FRA1:40:002:30 24.001566BRUXELLES
166.1627FLECOMPTE Esther24BEL1:40:072:31 23.971568BRUXELLES
167.1244FHANSEN Anne46DEU1:40:182:31 23.931573KRAAINEM
168.794FGRIEZ Valerie41BEL1:40:282:31 23.891577SCHAERBEEK
169.813FBUREZ Louise22BEL1:40:342:31 23.871578TEMSE
170.814FMARIMAN Elise22BEL1:40:412:32 23.841582SINT-NIKLAAS
171.815FCOPPEN Louise22BEL1:40:472:32 23.821583BELSELE
172.817FBOON Leen22BEL1:40:482:32 23.811584SINAAI
173.2093FNACKERS Fabienne46BEL1:41:502:33 23.571588JETTE
174.1102FVRIJENS France45BEL1:42:002:33 23.531591BXL
175.1103FVINCK Imgard43BEL1:42:012:34 23.531592BXL
176.1458FMEYER-CHARNEUX Erin48BEL1:42:132:34 23.481593BRUXELLES
177.2159FTHEYS Nathalie49BEL1:42:172:34 23.471594BRUXELLES
178.1832FCHOW Nathalie44BEL1:43:082:35 23.271603BRUGGE
179.1192FVANOPDENBOSCH Eleonore36BEL1:43:382:36 23.161608BRUXELLES
180.950FJOVANOVSKA Dragana36FRA1:43:482:36 23.121609LASNE
181.2110FXENOPHONTOS Katia48BEL1:43:542:36 23.101611SCHAERBEEK
182.486FSCHOLLIERS Annelies30BEL1:44:002:36 23.081614
183.5398FEECKHOUT Hannah30BEL1:44:012:37 23.071615
184.1983FFOUSS Clotilde31BEL1:44:072:37 23.051618AUDERGHEM
185.465FLACKNER Sandrine40BEL1:45:002:38 22.861627
186.573FROWLANDS Jasmine30GBR1:45:062:38 22.841632BRUSSELS
187.469FCOULON Marie27BEL1:45:482:39 22.681636BRUXELLES
188.1226FKROPAITE Egle45LTU1:45:562:39 22.661641BRUXELLES
189.239FGRISSELIN Sarah43BEL1:46:002:39 22.651643ROUCOURT
190.240FDEBLIQUY Carole41BEL1:46:002:39 22.641644WIERS
191.1009FGOMEZ Sara27BEL1:46:232:40 22.561646BRUXELLES
192.1008FGERARD Sandrine40FRA1:47:052:41 22.411651ETTERBEEK
193.767FLECOMTE Valentine29BEL1:47:092:41 22.401654WOLUWE SAINT LAMBERT
194.769FLECOMTE Carole27BEL1:47:122:41 22.391656SAINT-GILLES
195.805FGRAJCAROVA KOFEL Karolina38POL1:47:372:42 22.301660BRUXELLES
196.2140FCARPET Francoise64BEL1:48:352:43 22.101667BRUXELLES
197.669FBERSEZ Virginie49BEL1:48:382:43 22.091668BRUXELLES
198.1083FSOPHIE Guillaume32BEL1:48:472:44 22.061669BRUXELLES
199.1880FDE VRIES Shari35BEL1:48:542:44 22.041671VILVOORDE
200.624FBURHIN Clémentine20BEL1:49:052:44 22.001675BRUXELLES
201.661FMOREELS Pauline23BEL1:49:062:44 22.001676ALSEMBERG
202.660FFORESTINI Laura20BEL1:49:132:44 21.981678UCCLE
203.1198FBELFROID Margot28BEL1:49:172:44 21.961679ETTERBEEK
204.5459FNAESSENS Marieke24BEL1:49:262:45 21.931682BRUSSEL
205.444FTABOUROT Hélène52FRA1:50:032:46 21.811686BRUXELLES
206.659FBURHIN Louise20BEL1:50:072:46 21.801687UCCLE
207.313FWEYERS Alice20BEL1:51:072:47 21.601690BRUXELLES
208.314FDEVEEN Clarisse20BEL1:51:082:47 21.601691GANSHOREN
209.782FDE COCK Frederique54BEL1:51:092:47 21.591692BXL
210.1610FSTROUVEN Annick53BEL1:51:562:48 21.441698HANNUT
211.2059FDE FARIA P. LEANDRO Janine28BRA1:52:172:49 21.381700WOLUWE-SAINT-LAMBERT
212.1684FBARROS Priscilla38BRA1:52:182:49 21.371701BRUXELLES
213.1136FARABADJIEVA Marta50BGR1:53:272:51 21.161707BRUXELLES
214.1510FREZETTE Victoria24BEL1:54:212:52 20.991714WOLUWÉ-SAINT-LAMBERT
215.1527FDE VIVAR Pénélope24BEL1:54:212:52 20.991715VLEZENBEEK
216.1483FPASERMAN Ruth52ITA1:55:102:53 20.841718SCHAERBEEK
217.1169FBEECKMANS Lorena35BEL1:55:332:54 20.771719CLABECQ
218.2105FAMIEL Sophie34BEL1:56:342:55 20.591724IXELLES
219.565FSZTALBERG Cécile58BEL1:57:212:57 20.451726WATERMAEL-BOITSFORT
220.956FCAMPOSQ Marta40ESP1:57:342:57 20.421727BRUSSELS
221.1646FSAPRE Gayatri39IND1:57:472:57 20.381728BRUSSELS
222.2092FBORN Emmanuelle49BEL1:57:552:57 20.351729JETTE
223.2015FATKEKAR Sayali34IND1:58:542:59 20.191734BRUSSELS
224.5463FVERSPEETEN Laura26BEL1:59:303:00 20.081736BRUSSEL
225.5460FPETERS Kathleen24BEL1:59:343:00 20.071738BRUSSEL
226.5373FJAMET Sophie51FRA1:59:353:00 20.071740BRUXELLES
227.1721FROOBAERT Barbara29BEL1:59:383:00 20.061743BRUSSELS
228.876FDELHAYE Sabine56BEL1:59:413:00 20.051745BXL
229.1997FLUUKKONEN Tuula58FIN1:59:433:00 20.051746BRUXELLES
230.379FDE BOECK Liliane59BEL1:59:463:00 20.041747JETTE
231.584FTOP Eleonore48FRA1:59:523:00 20.021749UCCLE
232.750FVAN MAELE Brigitte64BEL2:00:143:01 19.961750BRUXELLES
233.2088FBLEYEN Linda51BEL2:00:393:01 19.891754PROFONDEVILLE
234.1744FDE CAEVEL Lise27BEL2:02:543:05 19.531759TOURNAI
235.1615FSTRUBBE Ingeborg52BEL2:03:143:05 19.481763BRUSSELS
236.1754FMAHDAD Amina22BEL2:03:143:05 19.481764BRUXELLES
237.685FDE BOCK Joëlle61BEL2:03:433:06 19.401766BUVRINNE
238.898FSWIRYDOWICZ Marta37BEL2:04:163:07 19.311768BRUXELLES
239.875FDE NALECZ GORSKI Caroline57FRA2:06:323:10 18.971772BRUXELLES
240.874FDAUVRIN Anne66BEL2:06:323:10 18.971773BRUXELLES
241.997FMENDES MOSCARDINI Amanda39BEL2:10:373:16 18.381782AUDERGHEM
242.2162FSVENSON Bruna30BEL2:10:493:17 18.351785ETTERBEEK
243.970FVAN DOMBURG Marjan54NLD2:11:503:18 18.211789OVERIJSE
244.1589FVERSTRAETEN Veronique48BEL2:12:503:20 18.071790STROMBEEK-BEVER
245.1731FVERBIST Els60BEL2:15:243:24 17.731795SINT-PIETERS-LEEUW
246.1199FCORCUERA FIGUERAS Carolina32ESP2:32:453:50 15.711801BRUXELLES
DNF1146FBEYAERT Marine16BELBRUXELLES
DNF1761FBORGERS Julie31BELTERVUREN
DNF1528FMERCIER Isabelle53FRASCHAERBEEK
DNF234FPASSEMIERS Françoise59BELBRUXELLES
DNF1111FPATTERSON Jeneva53USABRUSSELS
DNF1343FSTAINIER Valerie37BELSTERREBEEK
DNF1727FVAN LATHEM Barbara32BELBRUSSELS
DNF1509FVANELSLANDER Beatrice57BELKRAAINEM
DNF: did not finish; DSQ: disqualified; Speed in km/h
Page: [1]